SCP
0 0 0 0 0 0 0 0 0 0 0 0 0 0 0 -0 -0 0 0 0 0 0 0 0 0 0 0 0 0 0 0 0 0 0 0 0 0 0 0 0 0 0 0 0
0 0 0 0 0 0 0 0 0 0 0 0 0 0 0 0 0 -0 0 0 0 0 0 0 0 0 0 0 0 0 0 0 0 0 0 0 0 0 0 0 0 0 0 0
0 0 0 0 0 0 0 0 0 0 0 0 0 0 0 0 0 0 0 0 0 0 0 0 0 0 0 0 0 0 0 0 0 0 0 0 0 0 0 0 0 0 0 0
0 0 0 0 0 0 0 0 0 0 0 0 0 0 0 0 0 0 0 0 0 0 0 0 0 0 0 0 0 0 0 0 0 0 0 0 0 0 0 0 0 0 0 0
0 0 0 0 0 0 0 0 0 0 0 0 0 0 0 0 0 0 0 0 0 0 0 0 0 0 0 0 0 0 0 0 0 0 0 0 0 0 0 0 0 0 0 0
0 0 0 0 0 0 0 0 0 0 0 0 0 0 0 0 0 0 0 0 0 0 0 0 0 0 0 0 0 0 0 0 0 0 0 0 0 0 0 0 0 0 0 0
0 0 0 0 0 0 0 0 0 0 0 0 0 0 0 0 0 0 0 0 0 0 0 0 0 0 0 0 0 0 0 0 0 0 0 0 0 0 0 0 0 0 0 0
0 0 0 0 0 0 0 0 0 0 0 0 0 0 0 0 0 0 0 0 0 0 0 0 0 0 0 0 0 0 0 0 0 0 0 0 0 0 0 0 0 0 0 0
0 0 0 0 0 0 0 0 0 0 0 0 0 0 0 0 0 0 0 0 0 0 0 0 0 0 0 0 0 0 0 0 0 0 0 0 0 0 0 0 0 0 0 0
0 0 0 0 0 0 0 0 0 0 0 0 0 0 0 0 0 0 0 0 0 0 0 0 0 0 0 0 0 0 0 0 0 0 0 0 0 0 0 0 0 0 0 0
0 0 0 0 0 0 0 0 0 0 0 0 0 0 0 0 0 0 0 0 0 0 0 0 0 0 0 0 0 0 0 0 0 0 0 0 0 0 0 0 0 0 0 0
0 0 0 0 0 0 0 0 0 0 0 0 0 0 0 0 0 0 0 0 0 0 0 0 0 0 0 0 0 0 0 0 0 0 0 0 0 0 0 0 0 0 0 0
0 0 0 0 0 0 0 0 0 0 0 0 0 0 0 0 0 0 0 0 0 0 0 0 0 0 0 0 0 0 0 0 0 0 0 0 0 0 0 0 0 0 0 0
0 0 0 0 0 0 0 0 0 0 0 0 0 0 0 0 0 0 0 0 0 0 0 0 0 0 0 0 0 0 0 0 0 0 0 0 0 0 0 0 0 0 0 0
0 0 0 0 0 0 0 0 0 0 0 0 0 0 0 0 0 0 0 0 0 0 0 0 0 0 0 0 0 0 0 0 0 0 0 0 0 0 0 0 0 0 0 0
0 0 0 0 0 0 0 0 0 0 0 0 0 0 0 0 0 0 0 0 0 0 0 0 0 0 0 0 0 0 0 0 0 0 0 0 0 0 0 0 0 0 0 0
0 0 0 0 0 0 0 0 0 0 0 0 0 0 0 0 0 0 0 0 0 0 0 0 0 0 0 0 0 0 0 0 0 0 0 0 0 0 0 0 0 0 0 0
0 0 0 0 0 0 0 0 0 0 0 0 0 0 0 0 0 0 0 0 0 0 0 0 0 0 0 0 0 0 0 0 0 0 0 0 0 0 0 0 0 0 0 0
0 0 0 0 0 0 0 0 0 0 0 0 0 0 0 0 0 0 0 0 0 0 0 0 0 0 0 0 0 0 0 0 0 0 0 0 0 0 0 0 0 0 0 0
0 0 0 0 0 0 0 0 0 0 0 0 0 0 0 0 0 0 0 0 0 0 0 0 0 0 0 0 0 0 0 0 0 0 0 0 0 0 0 0 0 0 0 0
0 0 0 0 0 0 0 0 0 0 0 0 0 0 0 0 0 0 0 0 0 0 0 0 0 0 0 0 0 0 0 0 0 0 0 0 0 0 0 0 0 0 0 0
0 0 0 0 0 0 0 0 0 0 0 0 0 0 0 0 0 0 0 0 0 0 0 0 0 0 0 0 0 0 0 0 0 0 0 0 0 0 0 0 0 0 0 0
0 0 0 0 0 0 0 0 0 0 0 0 0 0 0 0 0 0 0 0 0 0 0 0 0 0 0 0 0 0 0 0 0 0 0 0 0 0 0 0 0 0 0 0
0 0 0 0 0 0 0 0 0 0 0 0 0 0 0 0 0 0 0 0 0 0 0 0 0 0 0 0 0 0 0 0 0 0 0 0 0 0 0 0 0 0 0 0
0 0 0 0 0 0 0 0 0 0 0 0 0 0 -0 -0 -0 0 0 0 0 0 0 0 0 0 0 0 0 0 0 0 0 0 0 0 0 0 0 0 0 0 0 0
0 0 0 0 0 0 0 0 0 0 0 0 0 0 0 0 0 0 0 0 0 0 0 0 0 0 0 0 0 0 0 0 0 0 0 0 0 0 0 0 0 0 0 0
0 0 0 0 0 0 0 0 0 0 0 0 0 0 0 0 0 0 0 0 0 0 0 0 0 0 0 0 0 0 0 0 0 0 0 0 0 0 0 0 0 0 0 0
Wind_Speed_500mb
2 2 21 19 40 50 42 43 22 60 31 18 19 20 22 29 23 24 36 48 59 63 61 62 57 53 53 55 58 60 64 67 69 69 69 67 64 57 50 43 37 31 24 20
6 11 2 11 29 44 58 55 44 54 58 25 30 33 38 56 33 34 42 53 61 64 65 66 63 61 61 63 64 63 65 68 71 73 73 69 62 55 48 42 36 30 25 21
10 4 4 9 33 28 26 28 43 37 57 16 22 25 42 50 49 49 52 59 67 69 68 68 69 66 69 67 65 66 68 72 75 74 72 66 60 53 47 41 36 30 26 22
7 4 9 13 5 18 32 28 37 44 16 18 40 52 41 43 49 54 55 56 58 65 70 70 70 71 71 72 73 74 77 79 77 75 71 65 59 53 48 42 36 30 27 23
10 6 14 27 11 12 14 29 36 34 27 33 38 18 37 44 57 59 60 52 47 49 59 67 72 75 79 82 83 85 87 86 83 78 74 68 62 54 50 43 36 31 29 27
7 12 19 6 26 28 12 41 23 33 25 29 27 10 25 55 58 57 54 54 54 54 58 65 72 79 85 91 93 96 95 91 86 83 76 69 61 56 49 43 38 35 33 28
12 9 16 15 4 25 20 11 3 19 39 25 16 26 20 10 15 31 44 54 57 60 65 65 66 74 88 95 104 99 96 93 91 84 76 68 62 57 50 45 42 38 33 28
6 15 31 13 12 25 11 2 2 6 5 29 46 33 34 33 33 30 32 33 37 44 51 60 66 69 80 98 99 102 100 97 93 86 80 74 67 60 55 49 44 38 30 28
23 16 4 32 1 12 7 7 2 4 2 1 4 7 11 13 18 20 23 31 33 37 41 51 58 61 71 82 94 100 101 101 96 90 84 77 71 65 57 50 42 31 24 40
7 3 5 23 15 9 6 12 10 7 6 4 5 6 8 11 12 16 17 15 20 26 36 46 49 54 60 69 75 87 98 101 99 95 88 81 73 64 55 46 33 26 33 54
6 1 2 5 15 6 9 9 9 10 11 12 10 11 12 12 12 16 17 18 16 17 23 35 42 48 55 60 64 77 91 99 101 96 90 82 73 60 49 34 32 32 53 51
7 8 8 6 8 10 8 10 12 11 12 15 19 20 16 16 16 15 16 17 18 18 19 23 31 38 46 54 59 67 80 95 100 96 90 77 64 56 44 37 45 55 59 53
10 14 21 21 15 14 13 10 8 7 9 11 12 13 16 16 14 15 15 15 16 15 15 19 24 29 36 44 53 60 70 88 99 96 84 73 65 56 44 56 66 69 59 54
21 21 13 11 8 10 10 15 20 18 16 15 15 15 15 15 17 19 20 20 18 16 17 18 21 22 26 36 47 56 65 79 92 89 79 72 68 65 62 68 73 65 58 54
20 12 12 16 10 15 15 16 14 14 14 14 17 18 19 20 21 19 20 23 24 22 21 22 23 22 24 31 42 52 62 74 84 84 78 78 74 60 63 71 69 66 60 58
22 19 27 28 22 17 12 9 5 6 9 13 16 18 19 20 20 22 25 27 28 25 23 23 22 20 24 30 38 48 59 69 76 77 76 76 74 64 72 73 72 67 64 59
30 26 26 23 15 7 3 5 7 10 13 17 19 20 21 22 22 23 25 28 30 30 26 24 23 25 26 29 34 45 57 66 72 76 81 83 78 73 70 74 71 67 63 57
21 22 16 13 8 2 4 9 12 15 17 18 20 21 23 24 26 27 28 28 29 28 30 29 26 25 25 27 32 43 59 69 78 83 86 85 78 77 68 72 70 67 64 62
12 8 6 3 3 4 4 4 6 8 10 13 15 18 21 24 25 27 28 29 29 28 29 31 33 35 33 32 33 39 53 68 78 82 83 84 82 75 70 73 73 72 70 69
7 6 4 3 3 3 3 5 8 10 12 14 15 16 17 19 22 24 27 31 33 33 34 36 36 38 39 39 41 41 49 58 70 79 83 85 84 79 74 77 79 76 74 72
13 11 7 4 3 3 6 6 6 8 10 13 16 18 22 25 27 29 29 32 35 37 39 41 42 42 41 41 45 46 48 53 61 69 77 83 83 82 80 80 80 76 75 71
12 11 9 6 5 5 6 9 13 17 19 21 23 24 26 27 29 32 36 37 37 42 44 46 46 47 48 50 49 49 51 54 56 61 68 74 78 80 81 79 79 80 74 71
5 4 3 4 6 9 13 16 19 22 24 27 29 31 34 37 41 43 45 43 46 49 52 53 54 55 54 51 49 49 49 51 54 57 59 62 67 70 73 74 72 69 68 66
11 13 14 16 18 19 19 22 26 30 33 36 39 43 45 46 43 45 47 53 57 57 57 56 55 55 54 51 50 49 49 48 49 50 50 52 56 58 61 63 64 62 61 61
15 19 22 24 27 30 32 31 31 33 34 36 39 44 48 53 56 57 60 59 58 58 56 53 52 49 46 44 43 44 43 42 42 43 43 45 47 50 53 54 55 55 56 57
22 24 26 28 30 31 34 36 36 38 40 41 40 45 48 51 55 59 61 62 60 57 53 49 45 43 40 40 38 36 36 35 35 36 38 40 43 45 47 48 50 51 52 52
27 29 28 30 36 37 38 41 41 38 39 42 41 43 45 46 47 48 48 48 47 45 44 42 40 37 35 33 32 30 30 30 31 33 35 37 39 40 42 44 46 46 47 48
Wind_Direction_500mb
130 188 173 179 192 201 209 217 215 242 243 217 246 274 300 307 280 255 236 224 217 218 219 222 221 221 219 215 210 205 201 201 202 205 203 197 196 198 201 204 209 215 223 239
2 339 243 201 200 202 211 217 226 245 260 256 254 270 263 267 248 243 240 235 228 226 225 226 223 220 217 214 208 205 203 201 200 199 196 196 198 200 203 207 211 218 229 242
224 327 69 320 225 202 213 215 218 230 244 181 227 238 247 260 252 244 249 243 234 232 232 229 227 223 218 213 208 203 201 199 199 198 198 199 200 203 207 210 215 222 234 242
157 87 191 237 273 219 215 221 227 246 241 213 237 251 259 267 269 267 254 250 248 242 238 233 230 225 219 215 210 205 202 202 202 202 203 204 205 207 210 214 219 226 236 241
146 189 294 280 178 148 174 255 228 236 241 237 252 254 264 253 252 260 268 274 272 266 252 242 235 227 222 218 214 210 208 206 207 207 207 208 210 210 213 217 223 230 235 243
125 189 223 333 198 185 119 268 190 209 215 220 170 207 247 260 253 253 259 266 267 266 257 247 239 229 224 221 218 216 214 212 211 211 211 212 213 214 216 218 224 230 233 242
166 224 274 238 183 149 177 258 323 227 226 185 197 219 232 303 274 267 266 267 269 266 261 258 247 234 228 226 225 223 218 216 214 213 214 214 216 217 218 221 226 228 233 244
101 219 255 163 88 189 226 115 87 55 172 225 228 231 260 283 285 274 271 275 276 271 264 257 250 241 234 231 229 225 222 218 216 215 214 214 216 218 218 221 224 228 234 270
189 212 219 189 210 213 99 147 128 133 96 259 208 252 303 319 310 300 280 270 268 271 265 259 254 249 243 239 231 227 223 220 217 215 215 216 218 219 219 220 224 226 263 265
101 219 212 203 207 197 143 139 115 86 68 45 312 327 330 324 331 311 308 290 276 279 267 260 258 253 248 244 240 233 226 220 217 216 216 216 217 218 219 220 222 248 261 255
285 304 182 243 211 143 145 103 94 80 76 65 43 22 3 342 336 338 328 320 308 289 280 270 263 257 251 247 242 235 227 221 217 217 217 218 218 219 218 220 241 258 255 250
217 161 109 93 90 194 187 124 110 106 81 54 41 40 19 351 338 335 335 327 322 316 300 284 272 264 256 251 245 238 229 221 218 217 216 216 217 217 217 235 264 251 248 249
153 124 120 123 101 100 112 93 70 38 40 43 38 37 31 22 5 354 347 335 321 315 310 299 286 273 264 255 249 242 234 224 219 218 216 216 218 214 234 255 246 247 246 249
128 120 89 80 96 61 66 98 99 85 72 63 57 46 38 27 16 9 5 357 350 343 332 313 297 286 273 261 252 244 237 228 223 219 219 223 225 235 242 250 247 246 246 250
145 127 159 170 160 148 131 116 113 82 57 43 32 27 23 15 13 9 359 357 359 1 358 340 318 300 278 264 253 244 237 230 223 221 223 227 224 231 249 246 243 243 243 248
168 161 141 142 136 127 119 106 80 40 14 16 10 4 5 1 353 348 345 346 350 356 353 345 333 310 292 282 267 249 237 230 226 225 227 227 230 242 250 244 243 244 247 251
163 153 147 144 143 133 70 20 354 341 334 335 338 339 336 333 334 331 334 338 339 339 337 332 328 316 301 284 271 250 239 231 228 232 234 234 236 253 250 246 247 249 253 254
148 152 151 161 167 221 303 312 315 316 318 328 333 335 334 333 335 333 330 326 322 322 318 317 310 304 300 289 272 255 245 240 239 238 240 241 245 262 254 251 251 252 253 253
160 167 168 187 227 247 256 278 305 325 335 336 336 333 333 334 335 332 331 325 320 318 313 308 305 304 300 287 273 261 252 249 249 250 251 251 255 255 255 259 258 258 257 255
123 123 101 109 114 115 67 358 340 336 335 336 338 339 334 332 332 330 328 325 323 323 321 317 313 308 301 294 287 277 265 260 257 256 255 256 258 258 257 260 262 260 258 257
107 105 99 90 90 85 75 47 10 345 336 332 330 329 329 328 327 323 321 318 320 318 316 313 312 313 311 305 299 293 282 272 266 263 263 262 261 259 255 255 257 258 258 256
92 97 99 93 63 32 4 344 325 317 318 319 318 317 315 314 315 319 319 318 317 316 316 316 315 312 309 307 304 299 292 284 275 268 266 266 264 263 261 259 259 261 258 260
69 59 33 4 335 322 316 313 307 301 301 303 305 306 309 312 312 312 311 311 311 312 311 312 310 309 308 309 305 300 294 288 282 275 270 268 267 265 264 263 265 264 262 259
323 319 318 316 314 314 316 312 308 308 309 310 311 311 311 310 310 309 308 307 307 306 306 306 304 304 303 302 298 296 293 289 283 277 273 271 269 268 267 267 266 264 262 260
302 301 303 306 307 309 309 309 307 305 305 306 308 308 308 308 308 307 305 304 302 300 299 299 298 298 298 297 296 294 291 288 283 277 274 273 272 269 267 265 264 262 260 259
305 302 300 298 299 299 298 297 299 300 301 303 307 307 307 308 308 308 306 304 302 300 298 297 295 294 295 295 294 293 291 289 284 280 277 274 272 270 268 266 264 263 263 262
303 299 297 300 301 300 300 300 302 304 305 308 314 315 315 316 317 316 312 307 302 299 297 297 296 296 296 295 295 294 292 290 286 283 280 278 276 274 272 270 268 266 265 265
Wind_Speed_850mb
2 2 21 19 40 50 42 43 22 60 31 18 19 20 22 29 23 24 36 48 59 63 61 62 57 53 53 55 58 60 64 67 69 69 69 67 64 57 50 43 37 31 24 20
6 11 2 11 29 44 58 55 44 54 58 25 30 33 38 56 33 34 42 53 61 64 65 66 63 61 61 63 64 63 65 68 71 73 73 69 62 55 48 42 36 30 25 21
10 4 4 9 33 28 26 28 43 37 57 16 22 25 42 50 49 49 52 59 67 69 68 68 69 66 69 67 65 66 68 72 75 74 72 66 60 53 47 41 36 30 26 22
7 4 9 13 5 18 32 28 37 44 16 18 40 52 41 43 49 54 55 56 58 65 70 70 70 71 71 72 73 74 77 79 77 75 71 65 59 53 48 42 36 30 27 23
10 6 14 27 11 12 14 29 36 34 27 33 38 18 37 44 57 59 60 52 47 49 59 67 72 75 79 82 83 85 87 86 83 78 74 68 62 54 50 43 36 31 29 27
7 12 19 6 26 28 12 41 23 33 25 29 27 10 25 55 58 57 54 54 54 54 58 65 72 79 85 91 93 96 95 91 86 83 76 69 61 56 49 43 38 35 33 28
12 9 16 15 4 25 20 11 3 19 39 25 16 26 20 10 15 31 44 54 57 60 65 65 66 74 88 95 104 99 96 93 91 84 76 68 62 57 50 45 42 38 33 28
6 15 31 13 12 25 11 2 2 6 5 29 46 33 34 33 33 30 32 33 37 44 51 60 66 69 80 98 99 102 100 97 93 86 80 74 67 60 55 49 44 38 30 28
23 16 4 32 1 12 7 7 2 4 2 1 4 7 11 13 18 20 23 31 33 37 41 51 58 61 71 82 94 100 101 101 96 90 84 77 71 65 57 50 42 31 24 40
7 3 5 23 15 9 6 12 10 7 6 4 5 6 8 11 12 16 17 15 20 26 36 46 49 54 60 69 75 87 98 101 99 95 88 81 73 64 55 46 33 26 33 54
6 1 2 5 15 6 9 9 9 10 11 12 10 11 12 12 12 16 17 18 16 17 23 35 42 48 55 60 64 77 91 99 101 96 90 82 73 60 49 34 32 32 53 51
7 8 8 6 8 10 8 10 12 11 12 15 19 20 16 16 16 15 16 17 18 18 19 23 31 38 46 54 59 67 80 95 100 96 90 77 64 56 44 37 45 55 59 53
10 14 21 21 15 14 13 10 8 7 9 11 12 13 16 16 14 15 15 15 16 15 15 19 24 29 36 44 53 60 70 88 99 96 84 73 65 56 44 56 66 69 59 54
21 21 13 11 8 10 10 15 20 18 16 15 15 15 15 15 17 19 20 20 18 16 17 18 21 22 26 36 47 56 65 79 92 89 79 72 68 65 62 68 73 65 58 54
20 12 12 16 10 15 15 16 14 14 14 14 17 18 19 20 21 19 20 23 24 22 21 22 23 22 24 31 42 52 62 74 84 84 78 78 74 60 63 71 69 66 60 58
22 19 27 28 22 17 12 9 5 6 9 13 16 18 19 20 20 22 25 27 28 25 23 23 22 20 24 30 38 48 59 69 76 77 76 76 74 64 72 73 72 67 64 59
30 26 26 23 15 7 3 5 7 10 13 17 19 20 21 22 22 23 25 28 30 30 26 24 23 25 26 29 34 45 57 66 72 76 81 83 78 73 70 74 71 67 63 57
21 22 16 13 8 2 4 9 12 15 17 18 20 21 23 24 26 27 28 28 29 28 30 29 26 25 25 27 32 43 59 69 78 83 86 85 78 77 68 72 70 67 64 62
12 8 6 3 3 4 4 4 6 8 10 13 15 18 21 24 25 27 28 29 29 28 29 31 33 35 33 32 33 39 53 68 78 82 83 84 82 75 70 73 73 72 70 69
7 6 4 3 3 3 3 5 8 10 12 14 15 16 17 19 22 24 27 31 33 33 34 36 36 38 39 39 41 41 49 58 70 79 83 85 84 79 74 77 79 76 74 72
13 11 7 4 3 3 6 6 6 8 10 13 16 18 22 25 27 29 29 32 35 37 39 41 42 42 41 41 45 46 48 53 61 69 77 83 83 82 80 80 80 76 75 71
12 11 9 6 5 5 6 9 13 17 19 21 23 24 26 27 29 32 36 37 37 42 44 46 46 47 48 50 49 49 51 54 56 61 68 74 78 80 81 79 79 80 74 71
5 4 3 4 6 9 13 16 19 22 24 27 29 31 34 37 41 43 45 43 46 49 52 53 54 55 54 51 49 49 49 51 54 57 59 62 67 70 73 74 72 69 68 66
11 13 14 16 18 19 19 22 26 30 33 36 39 43 45 46 43 45 47 53 57 57 57 56 55 55 54 51 50 49 49 48 49 50 50 52 56 58 61 63 64 62 61 61
15 19 22 24 27 30 32 31 31 33 34 36 39 44 48 53 56 57 60 59 58 58 56 53 52 49 46 44 43 44 43 42 42 43 43 45 47 50 53 54 55 55 56 57
22 24 26 28 30 31 34 36 36 38 40 41 40 45 48 51 55 59 61 62 60 57 53 49 45 43 40 40 38 36 36 35 35 36 38 40 43 45 47 48 50 51 52 52
27 29 28 30 36 37 38 41 41 38 39 42 41 43 45 46 47 48 48 48 47 45 44 42 40 37 35 33 32 30 30 30 31 33 35 37 39 40 42 44 46 46 47 48
Wind_Direction_850mb
130 188 173 179 192 201 209 217 215 242 243 217 246 274 300 307 280 255 236 224 217 218 219 222 221 221 219 215 210 205 201 201 202 205 203 197 196 198 201 204 209 215 223 239
2 339 243 201 200 202 211 217 226 245 260 256 254 270 263 267 248 243 240 235 228 226 225 226 223 220 217 214 208 205 203 201 200 199 196 196 198 200 203 207 211 218 229 242
224 327 69 320 225 202 213 215 218 230 244 181 227 238 247 260 252 244 249 243 234 232 232 229 227 223 218 213 208 203 201 199 199 198 198 199 200 203 207 210 215 222 234 242
157 87 191 237 273 219 215 221 227 246 241 213 237 251 259 267 269 267 254 250 248 242 238 233 230 225 219 215 210 205 202 202 202 202 203 204 205 207 210 214 219 226 236 241
146 189 294 280 178 148 174 255 228 236 241 237 252 254 264 253 252 260 268 274 272 266 252 242 235 227 222 218 214 210 208 206 207 207 207 208 210 210 213 217 223 230 235 243
125 189 223 333 198 185 119 268 190 209 215 220 170 207 247 260 253 253 259 266 267 266 257 247 239 229 224 221 218 216 214 212 211 211 211 212 213 214 216 218 224 230 233 242
166 224 274 238 183 149 177 258 323 227 226 185 197 219 232 303 274 267 266 267 269 266 261 258 247 234 228 226 225 223 218 216 214 213 214 214 216 217 218 221 226 228 233 244
101 219 255 163 88 189 226 115 87 55 172 225 228 231 260 283 285 274 271 275 276 271 264 257 250 241 234 231 229 225 222 218 216 215 214 214 216 218 218 221 224 228 234 270
189 212 219 189 210 213 99 147 128 133 96 259 208 252 303 319 310 300 280 270 268 271 265 259 254 249 243 239 231 227 223 220 217 215 215 216 218 219 219 220 224 226 263 265
101 219 212 203 207 197 143 139 115 86 68 45 312 327 330 324 331 311 308 290 276 279 267 260 258 253 248 244 240 233 226 220 217 216 216 216 217 218 219 220 222 248 261 255
285 304 182 243 211 143 145 103 94 80 76 65 43 22 3 342 336 338 328 320 308 289 280 270 263 257 251 247 242 235 227 221 217 217 217 218 218 219 218 220 241 258 255 250
217 161 109 93 90 194 187 124 110 106 81 54 41 40 19 351 338 335 335 327 322 316 300 284 272 264 256 251 245 238 229 221 218 217 216 216 217 217 217 235 264 251 248 249
153 124 120 123 101 100 112 93 70 38 40 43 38 37 31 22 5 354 347 335 321 315 310 299 286 273 264 255 249 242 234 224 219 218 216 216 218 214 234 255 246 247 246 249
128 120 89 80 96 61 66 98 99 85 72 63 57 46 38 27 16 9 5 357 350 343 332 313 297 286 273 261 252 244 237 228 223 219 219 223 225 235 242 250 247 246 246 250
145 127 159 170 160 148 131 116 113 82 57 43 32 27 23 15 13 9 359 357 359 1 358 340 318 300 278 264 253 244 237 230 223 221 223 227 224 231 249 246 243 243 243 248
168 161 141 142 136 127 119 106 80 40 14 16 10 4 5 1 353 348 345 346 350 356 353 345 333 310 292 282 267 249 237 230 226 225 227 227 230 242 250 244 243 244 247 251
163 153 147 144 143 133 70 20 354 341 334 335 338 339 336 333 334 331 334 338 339 339 337 332 328 316 301 284 271 250 239 231 228 232 234 234 236 253 250 246 247 249 253 254
148 152 151 161 167 221 303 312 315 316 318 328 333 335 334 333 335 333 330 326 322 322 318 317 310 304 300 289 272 255 245 240 239 238 240 241 245 262 254 251 251 252 253 253
160 167 168 187 227 247 256 278 305 325 335 336 336 333 333 334 335 332 331 325 320 318 313 308 305 304 300 287 273 261 252 249 249 250 251 251 255 255 255 259 258 258 257 255
123 123 101 109 114 115 67 358 340 336 335 336 338 339 334 332 332 330 328 325 323 323 321 317 313 308 301 294 287 277 265 260 257 256 255 256 258 258 257 260 262 260 258 257
107 105 99 90 90 85 75 47 10 345 336 332 330 329 329 328 327 323 321 318 320 318 316 313 312 313 311 305 299 293 282 272 266 263 263 262 261 259 255 255 257 258 258 256
92 97 99 93 63 32 4 344 325 317 318 319 318 317 315 314 315 319 319 318 317 316 316 316 315 312 309 307 304 299 292 284 275 268 266 266 264 263 261 259 259 261 258 260
69 59 33 4 335 322 316 313 307 301 301 303 305 306 309 312 312 312 311 311 311 312 311 312 310 309 308 309 305 300 294 288 282 275 270 268 267 265 264 263 265 264 262 259
323 319 318 316 314 314 316 312 308 308 309 310 311 311 311 310 310 309 308 307 307 306 306 306 304 304 303 302 298 296 293 289 283 277 273 271 269 268 267 267 266 264 262 260
302 301 303 306 307 309 309 309 307 305 305 306 308 308 308 308 308 307 305 304 302 300 299 299 298 298 298 297 296 294 291 288 283 277 274 273 272 269 267 265 264 262 260 259
305 302 300 298 299 299 298 297 299 300 301 303 307 307 307 308 308 308 306 304 302 300 298 297 295 294 295 295 294 293 291 289 284 280 277 274 272 270 268 266 264 263 263 262
303 299 297 300 301 300 300 300 302 304 305 308 314 315 315 316 317 316 312 307 302 299 297 297 296 296 296 295 295 294 292 290 286 283 280 278 276 274 272 270 268 266 265 265